Location: Poughquag
(41.6090°N, 73.6820°W)
Time: 11:59:05
(UTC-04:00)

Tiros 1 despin weight - Pass Details

Date: 01 June 2020
Orbit: 593 x 642 km, 48.2° (Epoch: 07 July)

Event Time Altitude Azimuth Distance (km) Brightness Sun altitude
Rises 18:07:55 0° 281° (W) 2,856 ? 22.7°
Reaches altitude 10° 18:12:01 10° 244° (WSW) 1,935 ? 21.9°
Maximum altitude 18:13:07 11° 230° (SW) 1,877 ? 21.7°
Drops below altitude 10° 18:14:13 10° 215° (SW) 1,926 ? 21.5°
Sets 18:18:17 0° 178° (S) 2,814 ? 20.8°
